﻿測定場所 (Monitoring sites),日付 (Measurement date),時間 (Measurement time),線量率 最大値 (max) μGy/h,線量率 最小値 (min) μGy/h,線量率 平均値 (average) μGy/h,
新宿 (Shinjuku),2011-11-13,23:00～23:59,0.0573,0.0533,0.0553,
新宿 (Shinjuku),2011-11-13,22:00～22:59,0.0575,0.0520,0.0550,
新宿 (Shinjuku),2011-11-13,21:00～21:59,0.0572,0.0529,0.0550,
新宿 (Shinjuku),2011-11-13,20:00～20:59,0.0574,0.0532,0.0553,
新宿 (Shinjuku),2011-11-13,19:00～19:59,0.0579,0.0522,0.0548,
新宿 (Shinjuku),2011-11-13,18:00～18:59,0.0571,0.0525,0.0546,
新宿 (Shinjuku),2011-11-13,17:00～17:59,0.0570,0.0520,0.0546,
新宿 (Shinjuku),2011-11-13,16:00～16:59,0.0569,0.0526,0.0545,
新宿 (Shinjuku),2011-11-13,15:00～15:59,0.0570,0.0522,0.0548,
新宿 (Shinjuku),2011-11-13,14:00～14:59,0.0576,0.0515,0.0545,
新宿 (Shinjuku),2011-11-13,13:00～13:59,0.0578,0.0530,0.0548,
新宿 (Shinjuku),2011-11-13,12:00～12:59,0.0576,0.0524,0.0547,
新宿 (Shinjuku),2011-11-13,11:00～11:59,0.0577,0.0529,0.0552,
新宿 (Shinjuku),2011-11-13,10:00～10:59,0.0579,0.0522,0.0550,
新宿 (Shinjuku),2011-11-13,09:00～09:59,0.0582,0.0520,0.0548,
新宿 (Shinjuku),2011-11-13,08:00～08:59,0.0565,0.0528,0.0549,
新宿 (Shinjuku),2011-11-13,07:00～07:59,0.0563,0.0521,0.0543,
新宿 (Shinjuku),2011-11-13,06:00～06:59,0.0571,0.0516,0.0543,
新宿 (Shinjuku),2011-11-13,05:00～05:59,0.0572,0.0516,0.0544,
新宿 (Shinjuku),2011-11-13,04:00～04:59,0.0566,0.0517,0.0545,
新宿 (Shinjuku),2011-11-13,03:00～03:59,0.0590,0.0524,0.0546,
新宿 (Shinjuku),2011-11-13,02:00～02:59,0.0574,0.0523,0.0545,
新宿 (Shinjuku),2011-11-13,01:00～01:59,0.0565,0.0518,0.0544,
新宿 (Shinjuku),2011-11-13,00:00～00:59,0.0566,0.0519,0.0541,
新宿 (Shinjuku),2011-11-12,23:00～23:59,0.0570,0.0514,0.0540,
新宿 (Shinjuku),2011-11-12,22:00～22:59,0.0576,0.0514,0.0544,
新宿 (Shinjuku),2011-11-12,21:00～21:59,0.0581,0.0511,0.0544,
新宿 (Shinjuku),2011-11-12,20:00～20:59,0.0564,0.0516,0.0544,
新宿 (Shinjuku),2011-11-12,19:00～19:59,0.0562,0.0519,0.0540,
新宿 (Shinjuku),2011-11-12,18:00～18:59,0.0569,0.0515,0.0542,
新宿 (Shinjuku),2011-11-12,17:00～17:59,0.0567,0.0514,0.0543,
新宿 (Shinjuku),2011-11-12,16:00～16:59,0.0565,0.0524,0.0543,
新宿 (Shinjuku),2011-11-12,15:00～15:59,0.0582,0.0511,0.0544,
新宿 (Shinjuku),2011-11-12,14:00～14:59,0.0569,0.0516,0.0543,
新宿 (Shinjuku),2011-11-12,13:00～13:59,0.0572,0.0522,0.0545,
新宿 (Shinjuku),2011-11-12,12:00～12:59,0.0574,0.0516,0.0547,
新宿 (Shinjuku),2011-11-12,11:00～11:59,0.0574,0.0518,0.0545,
新宿 (Shinjuku),2011-11-12,10:00～10:59,0.0583,0.0525,0.0552,
新宿 (Shinjuku),2011-11-12,09:00～09:59,0.0578,0.0527,0.0553,
新宿 (Shinjuku),2011-11-12,08:00～08:59,0.0578,0.0521,0.0549,
新宿 (Shinjuku),2011-11-12,07:00～07:59,0.0577,0.0521,0.0548,
新宿 (Shinjuku),2011-11-12,06:00～06:59,0.0575,0.0523,0.0549,
新宿 (Shinjuku),2011-11-12,05:00～05:59,0.0569,0.0522,0.0546,
新宿 (Shinjuku),2011-11-12,04:00～04:59,0.0578,0.0530,0.0548,
新宿 (Shinjuku),2011-11-12,03:00～03:59,0.0574,0.0509,0.0542,
新宿 (Shinjuku),2011-11-12,02:00～02:59,0.0567,0.0522,0.0545,
新宿 (Shinjuku),2011-11-12,01:00～01:59,0.0569,0.0520,0.0546,
新宿 (Shinjuku),2011-11-12,00:00～00:59,0.0584,0.0530,0.0551,
新宿 (Shinjuku),2011-11-11,23:00～23:59,0.0589,0.0541,0.0565,
新宿 (Shinjuku),2011-11-11,22:00～22:59,0.0590,0.0525,0.0561,
新宿 (Shinjuku),2011-11-11,21:00～21:59,0.0597,0.0539,0.0566,
新宿 (Shinjuku),2011-11-11,20:00～20:59,0.0588,0.0529,0.0563,
新宿 (Shinjuku),2011-11-11,19:00～19:59,0.0603,0.0545,0.0570,
新宿 (Shinjuku),2011-11-11,18:00～18:59,0.0606,0.0544,0.0581,
新宿 (Shinjuku),2011-11-11,17:00～17:59,0.0625,0.0571,0.0594,
新宿 (Shinjuku),2011-11-11,16:00～16:59,0.0638,0.0582,0.0606,
新宿 (Shinjuku),2011-11-11,15:00～15:59,0.0625,0.0567,0.0596,
新宿 (Shinjuku),2011-11-11,14:00～14:59,0.0617,0.0557,0.0586,
新宿 (Shinjuku),2011-11-11,13:00～13:59,0.0632,0.0562,0.0599,
新宿 (Shinjuku),2011-11-11,12:00～12:59,0.0642,0.0571,0.0613,
新宿 (Shinjuku),2011-11-11,11:00～11:59,0.0646,0.0592,0.0622,
新宿 (Shinjuku),2011-11-11,10:00～10:59,0.0627,0.0553,0.0599,
新宿 (Shinjuku),2011-11-11,09:00～09:59,0.0624,0.0558,0.0588,
新宿 (Shinjuku),2011-11-11,08:00～08:59,0.0618,0.0564,0.0593,
新宿 (Shinjuku),2011-11-11,07:00～07:59,0.0611,0.0549,0.0579,
新宿 (Shinjuku),2011-11-11,06:00～06:59,0.0578,0.0536,0.0557,
新宿 (Shinjuku),2011-11-11,05:00～05:59,0.0585,0.0531,0.0554,
新宿 (Shinjuku),2011-11-11,04:00～04:59,0.0579,0.0529,0.0551,
新宿 (Shinjuku),2011-11-11,03:00～03:59,0.0576,0.0523,0.0549,
新宿 (Shinjuku),2011-11-11,02:00～02:59,0.0567,0.0516,0.0547,
新宿 (Shinjuku),2011-11-11,01:00～01:59,0.0573,0.0509,0.0546,
新宿 (Shinjuku),2011-11-11,00:00～00:59,0.0572,0.0518,0.0544,
新宿 (Shinjuku),2011-11-10,23:00～23:59,0.0570,0.0519,0.0542,
新宿 (Shinjuku),2011-11-10,22:00～22:59,0.0566,0.0523,0.0545,
新宿 (Shinjuku),2011-11-10,21:00～21:59,0.0567,0.0517,0.0545,
新宿 (Shinjuku),2011-11-10,20:00～20:59,0.0573,0.0518,0.0544,
新宿 (Shinjuku),2011-11-10,19:00～19:59,0.0586,0.0521,0.0544,
新宿 (Shinjuku),2011-11-10,18:00～18:59,0.0569,0.0524,0.0546,
新宿 (Shinjuku),2011-11-10,17:00～17:59,0.0573,0.0516,0.0546,
新宿 (Shinjuku),2011-11-10,16:00～16:59,0.0566,0.0525,0.0546,
新宿 (Shinjuku),2011-11-10,15:00～15:59,0.0570,0.0523,0.0549,
新宿 (Shinjuku),2011-11-10,14:00～14:59,0.0563,0.0528,0.0547,
新宿 (Shinjuku),2011-11-10,13:00～13:59,0.0572,0.0522,0.0548,
新宿 (Shinjuku),2011-11-10,12:00～12:59,0.0577,0.0522,0.0552,
新宿 (Shinjuku),2011-11-10,11:00～11:59,0.0583,0.0530,0.0554,
新宿 (Shinjuku),2011-11-10,10:00～10:59,0.0593,0.0537,0.0557,
新宿 (Shinjuku),2011-11-10,09:00～09:59,0.0579,0.0535,0.0556,
新宿 (Shinjuku),2011-11-10,08:00～08:59,0.0579,0.0539,0.0558,
新宿 (Shinjuku),2011-11-10,07:00～07:59,0.0589,0.0535,0.0562,
新宿 (Shinjuku),2011-11-10,06:00～06:59,0.0599,0.0532,0.0561,
新宿 (Shinjuku),2011-11-10,05:00～05:59,0.0580,0.0528,0.0556,
新宿 (Shinjuku),2011-11-10,04:00～04:59,0.0583,0.0526,0.0552,
新宿 (Shinjuku),2011-11-10,03:00～03:59,0.0572,0.0527,0.0549,
新宿 (Shinjuku),2011-11-10,02:00～02:59,0.0572,0.0525,0.0551,
新宿 (Shinjuku),2011-11-10,01:00～01:59,0.0571,0.0521,0.0545,
新宿 (Shinjuku),2011-11-10,00:00～00:59,0.0562,0.0518,0.0541,
新宿 (Shinjuku),2011-11-09,23:00～23:59,0.0573,0.0517,0.0542,
新宿 (Shinjuku),2011-11-09,22:00～22:59,0.0565,0.0523,0.0542,
新宿 (Shinjuku),2011-11-09,21:00～21:59,0.0577,0.0514,0.0545,
新宿 (Shinjuku),2011-11-09,20:00～20:59,0.0565,0.0514,0.0544,
新宿 (Shinjuku),2011-11-09,19:00～19:59,0.0572,0.0500,0.0541,
新宿 (Shinjuku),2011-11-09,18:00～18:59,0.0569,0.0520,0.0543,
新宿 (Shinjuku),2011-11-09,17:00～17:59,0.0578,0.0510,0.0545,
新宿 (Shinjuku),2011-11-09,16:00～16:59,0.0560,0.0516,0.0542,
新宿 (Shinjuku),2011-11-09,15:00～15:59,0.0571,0.0525,0.0544,
新宿 (Shinjuku),2011-11-09,14:00～14:59,0.0576,0.0525,0.0548,
新宿 (Shinjuku),2011-11-09,13:00～13:59,0.0562,0.0520,0.0544,
新宿 (Shinjuku),2011-11-09,12:00～12:59,0.0577,0.0522,0.0547,
新宿 (Shinjuku),2011-11-09,11:00～11:59,0.0579,0.0530,0.0548,
新宿 (Shinjuku),2011-11-09,10:00～10:59,0.0569,0.0529,0.0552,
新宿 (Shinjuku),2011-11-09,09:00～09:59,0.0577,0.0524,0.0550,
新宿 (Shinjuku),2011-11-09,08:00～08:59,0.0584,0.0520,0.0553,
新宿 (Shinjuku),2011-11-09,07:00～07:59,0.0576,0.0516,0.0545,
新宿 (Shinjuku),2011-11-09,06:00～06:59,0.0572,0.0523,0.0546,
新宿 (Shinjuku),2011-11-09,05:00～05:59,0.0575,0.0524,0.0549,
新宿 (Shinjuku),2011-11-09,04:00～04:59,0.0567,0.0516,0.0548,
新宿 (Shinjuku),2011-11-09,03:00～03:59,0.0569,0.0525,0.0546,
新宿 (Shinjuku),2011-11-09,02:00～02:59,0.0574,0.0503,0.0547,
新宿 (Shinjuku),2011-11-09,01:00～01:59,0.0572,0.0523,0.0546,
新宿 (Shinjuku),2011-11-09,00:00～00:59,0.0571,0.0517,0.0541,
新宿 (Shinjuku),2011-11-08,23:00～23:59,0.0566,0.0527,0.0544,
新宿 (Shinjuku),2011-11-08,22:00～22:59,0.0561,0.0520,0.0544,
新宿 (Shinjuku),2011-11-08,21:00～21:59,0.0567,0.0520,0.0542,
新宿 (Shinjuku),2011-11-08,20:00～20:59,0.0577,0.0515,0.0542,
新宿 (Shinjuku),2011-11-08,19:00～19:59,0.0576,0.0509,0.0542,
新宿 (Shinjuku),2011-11-08,18:00～18:59,0.0587,0.0514,0.0544,
新宿 (Shinjuku),2011-11-08,17:00～17:59,0.0576,0.0513,0.0547,
新宿 (Shinjuku),2011-11-08,16:00～16:59,0.0566,0.0524,0.0546,
新宿 (Shinjuku),2011-11-08,15:00～15:59,0.0572,0.0523,0.0545,
新宿 (Shinjuku),2011-11-08,14:00～14:59,0.0576,0.0520,0.0546,
新宿 (Shinjuku),2011-11-08,13:00～13:59,0.0576,0.0527,0.0548,
新宿 (Shinjuku),2011-11-08,12:00～12:59,0.0573,0.0523,0.0550,
新宿 (Shinjuku),2011-11-08,11:00～11:59,0.0577,0.0528,0.0548,
新宿 (Shinjuku),2011-11-08,10:00～10:59,0.0574,0.0520,0.0547,
新宿 (Shinjuku),2011-11-08,09:00～09:59,0.0567,0.0514,0.0547,
新宿 (Shinjuku),2011-11-08,08:00～08:59,0.0573,0.0514,0.0544,
新宿 (Shinjuku),2011-11-08,07:00～07:59,0.0577,0.0518,0.0544,
新宿 (Shinjuku),2011-11-08,06:00～06:59,0.0582,0.0520,0.0547,
新宿 (Shinjuku),2011-11-08,05:00～05:59,0.0582,0.0520,0.0554,
新宿 (Shinjuku),2011-11-08,04:00～04:59,0.0593,0.0541,0.0564,
新宿 (Shinjuku),2011-11-08,03:00～03:59,0.0609,0.0554,0.0581,
新宿 (Shinjuku),2011-11-08,02:00～02:59,0.0585,0.0527,0.0555,
新宿 (Shinjuku),2011-11-08,01:00～01:59,0.0583,0.0523,0.0548,
新宿 (Shinjuku),2011-11-08,00:00～00:59,0.0579,0.0527,0.0552,
新宿 (Shinjuku),2011-11-07,23:00～23:59,0.0566,0.0525,0.0546,
新宿 (Shinjuku),2011-11-07,22:00～22:59,0.0576,0.0524,0.0548,
新宿 (Shinjuku),2011-11-07,21:00～21:59,0.0567,0.0523,0.0546,
新宿 (Shinjuku),2011-11-07,20:00～20:59,0.0583,0.0519,0.0543,
新宿 (Shinjuku),2011-11-07,19:00～19:59,0.0572,0.0512,0.0544,
新宿 (Shinjuku),2011-11-07,18:00～18:59,0.0576,0.0516,0.0551,
新宿 (Shinjuku),2011-11-07,17:00～17:59,0.0583,0.0516,0.0550,
新宿 (Shinjuku),2011-11-07,16:00～16:59,0.0576,0.0523,0.0551,
新宿 (Shinjuku),2011-11-07,15:00～15:59,0.0578,0.0523,0.0549,
新宿 (Shinjuku),2011-11-07,14:00～14:59,0.0576,0.0522,0.0553,
新宿 (Shinjuku),2011-11-07,13:00～13:59,0.0566,0.0521,0.0547,
新宿 (Shinjuku),2011-11-07,12:00～12:59,0.0580,0.0526,0.0552,
新宿 (Shinjuku),2011-11-07,11:00～11:59,0.0576,0.0527,0.0553,
新宿 (Shinjuku),2011-11-07,10:00～10:59,0.0583,0.0534,0.0558,
新宿 (Shinjuku),2011-11-07,09:00～09:59,0.0580,0.0522,0.0554,
新宿 (Shinjuku),2011-11-07,08:00～08:59,0.0579,0.0523,0.0552,
新宿 (Shinjuku),2011-11-07,07:00～07:59,0.0574,0.0516,0.0552,
新宿 (Shinjuku),2011-11-07,06:00～06:59,0.0581,0.0530,0.0551,
新宿 (Shinjuku),2011-11-07,05:00～05:59,0.0571,0.0521,0.0548,
新宿 (Shinjuku),2011-11-07,04:00～04:59,0.0579,0.0527,0.0552,
新宿 (Shinjuku),2011-11-07,03:00～03:59,0.0579,0.0526,0.0548,
新宿 (Shinjuku),2011-11-07,02:00～02:59,0.0575,0.0523,0.0551,
新宿 (Shinjuku),2011-11-07,01:00～01:59,0.0583,0.0527,0.0554,
新宿 (Shinjuku),2011-11-07,00:00～00:59,0.0600,0.0540,0.0557,
